THORAD DELTA 1 DEB, 42622

Orbit data source: Space-Track

THORAD DELTA 1 DEB, 42622 is space debris in SSO originally from a launch on Fri, 15 Nov 1974 UTC launched from the Air Force Western Test Range (AFWTR). Debris objects in space refer to the collection of defunct objects orbiting the Earth. Examples of debris include non-operational satellites, rocket bodies, and fragments generated from explosions, collisions, or faulty payload assembly.

Loading next visibility...
Identifier
42622, 1974-089GP
Orbit
SSO
Country
Flag of USUS
Related business
Manufacturer
Unknown
Mission
Spacecraft
Bus & Motor
Unknown
Mass
Unknown
Launch date (UTC)
1974-11-15 (51 years ago)
Launch vehicle
Unknown
Launch site
Air Force Western Test Range (AFWTR)
Object type
Payload
Rocket body
Debris
Shape & HBR
Unknown shape, 0.1 m
Radar Cross Section
Small (<0.1 m²)

Expand to show TLE details & history
Last TLE update: 18 hours ago

TLE from 18 hours ago
0 THORAD DELTA 1 DEB
1 42622U 74089GP  26123.10412411  .00000054  00000-0  82811-3 0  9994
2 42622 101.4737 253.9714 0154578 216.5112 321.4304 12.24305285556195
Epoch: 2026-05-03T02:29Z
TLE epoch observation values (Epoch: 2026-05-03T02:29:56.323Z)
Latitude
3.0287°
Longitude
176.08656°
Altitude
1,480.684 km
Speed
7.166 km/s
True Right ascension
04h 58m 20s
True Declination
3° 00' 44"
Sunlit
Object was in daylight at epoch
Visualization orbit readout
Latitude
Unknown
Longitude
Unknown
Altitude
Unknown
Speed
Unknown
Apparent Right ascension
Unknown
Apparent Declination
Unknown
Sunlit
N/A
Visualization observer readout
Local Sidereal Time
04:18:19
Azimuth
Unknown
Elevation
Unknown
Doppler factor
Unknown
Orbital elements
Apogee altitude
1,694.291 km
Perigee altitude
1,448.526 km
Semi-major axis
7,949.546 km
Eccentricity
0.01546
Inclination
101.4737°
RAAN
253.9714°
Arg. of periapsis
216.5112°
True anomaly
320.30918°
Mean anomaly
321.4304°
Eccentric anomaly
320.87149°
Mean motion
3.06217 °/min
Orbital period
117.56 mins
BSTAR
0.00082811
Loading maneuver chart data...
Computing Atmospheric mass density...

Documentation

Showing up to 5 results
|